TimeEST,TemperatureF,Dew PointF,Humidity,Sea Level PressureIn,VisibilityMPH,Wind Direction,Wind SpeedMPH,Gust SpeedMPH,PrecipitationIn,Events,Conditions,WindDirDegrees,DateUTC
12:11 AM,33.8,32.0,93,30.15,3.0,Calm,Calm,-,N/A,,Clear,0,2011-12-15 05:11:00
12:51 AM,34.0,32.0,92,30.19,3.0,Calm,Calm,-,N/A,,Clear,0,2011-12-15 05:51:00
1:51 AM,33.1,32.0,96,30.18,5.0,Calm,Calm,-,N/A,,Clear,0,2011-12-15 06:51:00
2:51 AM,33.8,33.8,100,30.12,6.0,Calm,Calm,-,N/A,,Clear,0,2011-12-15 07:51:00
3:51 AM,32.0,30.9,96,30.17,6.0,Calm,Calm,-,N/A,,Clear,0,2011-12-15 08:51:00
4:51 AM,35.1,34.0,96,30.15,6.0,Calm,Calm,-,N/A,,Overcast,0,2011-12-15 09:51:00
5:51 AM,52.0,43.0,71,30.12,10.0,SSW,9.2,-,N/A,,Overcast,210,2011-12-15 10:51:00
6:51 AM,57.0,44.1,62,30.11,10.0,SW,10.4,18.4,N/A,,Overcast,220,2011-12-15 11:51:00
7:51 AM,57.9,45.0,62,30.11,10.0,SW,11.5,24.2,N/A,,Mostly Cloudy,230,2011-12-15 12:51:00
8:51 AM,59.0,45.0,60,30.08,10.0,Variable,6.9,17.3,N/A,,Scattered Clouds,0,2011-12-15 13:51:00
9:51 AM,61.0,46.9,60,30.05,10.0,SW,15.0,24.2,0.00,,Partly Cloudy,220,2011-12-15 14:51:00
10:51 AM,62.1,46.9,58,30.04,10.0,SW,15.0,26.5,0.00,,Scattered Clouds,230,2011-12-15 15:51:00
11:51 AM,61.0,46.9,60,30.02,10.0,SSW,10.4,19.6,0.00,Rain,Light Rain,200,2011-12-15 16:51:00
12:51 PM,60.1,48.9,67,29.99,10.0,SSW,10.4,-,0.00,Rain,Light Rain,210,2011-12-15 17:51:00
1:51 PM,57.9,50.0,75,29.97,9.0,SSW,10.4,-,0.02,Rain,Light Rain,200,2011-12-15 18:51:00
2:44 PM,55.4,51.8,88,29.94,9.0,South,9.2,17.3,0.03,Rain,Light Rain,180,2011-12-15 19:44:00
2:51 PM,55.9,52.0,87,29.97,10.0,South,9.2,-,0.03,Rain,Light Rain,170,2011-12-15 19:51:00
3:51 PM,55.9,52.0,87,29.99,9.0,SSW,5.8,-,0.00,Rain,Light Rain,200,2011-12-15 20:51:00
4:51 PM,55.9,52.0,87,29.97,3.0,South,6.9,-,0.00,Rain,Light Rain,180,2011-12-15 21:51:00
4:58 PM,55.4,51.8,88,29.94,5.0,South,6.9,-,0.01,Rain,Light Rain,180,2011-12-15 21:58:00
5:06 PM,55.4,51.8,88,29.94,10.0,South,8.1,-,0.01,,Overcast,180,2011-12-15 22:06:00
5:16 PM,55.4,51.8,88,29.94,10.0,South,6.9,-,0.01,,Overcast,170,2011-12-15 22:16:00
5:23 PM,55.4,51.8,88,29.94,10.0,South,6.9,-,0.01,,Overcast,180,2011-12-15 22:23:00
5:44 PM,57.2,51.8,82,29.94,9.0,SSW,11.5,21.9,0.01,Rain,Light Rain,210,2011-12-15 22:44:00
5:51 PM,57.0,52.0,83,29.96,6.0,SW,16.1,25.3,0.02,Rain,Light Rain,220,2011-12-15 22:51:00
6:24 PM,57.2,51.8,82,29.95,10.0,SW,13.8,38.0,0.00,,Overcast,230,2011-12-15 23:24:00
6:51 PM,57.2,50.0,77,29.95,10.0,SW,15.0,21.9,N/A,,Scattered Clouds,230,2011-12-15 23:51:00
7:51 PM,57.9,48.9,72,29.96,10.0,West,16.1,33.4,N/A,,Overcast,260,2011-12-16 00:51:00
8:51 PM,57.0,46.9,69,29.96,10.0,West,8.1,29.9,0.00,,Scattered Clouds,260,2011-12-16 01:51:00
9:51 PM,57.0,46.9,69,29.97,10.0,West,11.5,24.2,N/A,,Mostly Cloudy,260,2011-12-16 02:51:00
10:48 PM,53.6,48.2,82,30.00,8.0,WNW,11.5,29.9,0.02,Rain,Light Rain,290,2011-12-16 03:48:00
10:51 PM,53.1,48.9,86,30.01,10.0,WNW,17.3,26.5,0.02,Rain,Light Rain,290,2011-12-16 03:51:00
11:51 PM,53.1,45.0,74,30.03,10.0,West,15.0,31.1,0.00,,Overcast,270,2011-12-16 04:51:00